Regional Weather Roundup
Issued by NWS Cleveland, OH

Home | Current Version | Previous Version | Graphics & Text | Print | Product List | Glossary On
Versions: 1 2 3 4 5 6 7 8 9 10 11 12 13 14 15 16 17 18 19 20 21 22 23 24 25 26 27 28 29 30 31 32 33 34 35 36 37 38 39 40 41 42 43 44 45 46 47 48 49 50
000
ASUS41 KCLE 200902
RWRCLE
OHIO REGIONAL WEATHER ROUNDUP
NATIONAL WEATHER SERVICE CLEVELAND, OH
400 AM EST MON FEB 20 2017

NOTE: "FAIR" INDICATES FEW OR NO CLOUDS BELOW 12,000 FEET WITH NO
SIGNIFICANT WEATHER AND/OR OBSTRUCTIONS TO VISIBILITY.

OHZ001>008-015>018-024>027-034-035-043-044-201000-
   NORTHWEST OHIO

CITY           SKY/WX    TMP DP  RH WIND       PRES   REMARKS
DEFIANCE       PTCLDY    33  29  85 CALM      30.18S
FINDLAY        PTCLDY    37  31  78 S3        30.17R
TOLEDO EXPRESS CLOUDY    38  35  89 NE3       30.19S
TOLEDO EXEC    CLOUDY    38  35  89 NE6       30.20R
LIMA           PTCLDY    41  41 100 CALM      30.17F FOG
$$

OHZ009>014-019>023-028>033-038-089-201000-
   NORTHEAST OHIO

CITY           SKY/WX    TMP DP  RH WIND       PRES   REMARKS
CLE-HOPKINS    PTCLDY    37  30  75 CALM      30.21R
CLE-LAKEFRONT  CLEAR     40  34  79 CALM      30.19R
CUY CO. ARPT   NOT AVBL
LORAIN-ELYRIA  CLEAR     33  29  85 SW3       30.19R
ASHTABULA      CLEAR     30  29  96 CALM      30.19S
AKRON-CANTON   CLEAR     38  34  85 CALM      30.17S FOG
WOOSTER        FOG       31  31 100 CALM      30.18S VSB 1/4
MANSFIELD      CLOUDY    41  40  96 W5        30.17S FOG
YOUNGSTOWN     PTCLDY    38  32  79 CALM      30.18R
$$

OHZ042-051>053-060>062-070>072-077>081-201000-
  SOUTHWEST OHIO

CITY           SKY/WX    TMP DP  RH WIND       PRES   REMARKS
CINC-COVINGTON FOG       37  37 100 CALM      30.17R VSB 1/4
CINC-LUNKEN    FOG       40  40 100 CALM      30.20S VSB<1/4
HAMILTON       FOG       37  37 100 CALM      30.20R VSB<1/4
DAYTON         FOG       38  38 100 CALM      30.18S VSB 1/4
WRIGHT-PAT AFB FOG       36  36 100 N3        30.18S VSB 1/8
DAYTON GENERAL FOG       34  34 100 NE5       30.17S VSB 1/4 WCI  30
WILMINGTON     FOG       33  33 100 CALM      30.18R VSB 1/4
$$

OHZ036-037-039>041-045>050-054>059-063>069-073>076-082>088-201000-
  CENTRAL AND SOUTHEAST OHIO

CITY           SKY/WX    TMP DP  RH WIND       PRES   REMARKS
COLUMBUS       FOG       39  38  96 CALM      30.18S VSB 1/8
OSU AIRPORT    FOG       34  34 100 CALM      30.18S VSB<1/4
BOLTON FIELD   CLOUDY    33  33 100 CALM      30.19S VSB<1/4
RICKENBACK AFB FOG       32  32 100 CALM      30.18S VSB 1/4
NEWARK         FOG       34  33  96 CALM      30.18S VSB 1/4
MARION         FOG       35  34  96 S3        30.19R VSB 1/4
LANCASTER      FOG       33  31  92 CALM      30.19S VSB 1/4
ZANESVILLE     FOG       34  34 100 CALM      30.18S VSB<1/4
NEW PHILLY     NOT AVBL
$$




USA.gov is the U.S. government's official web portal to all federal, state and local government web resources and services.